Location: Caltech
(34.1382°N, 118.1253°W)
Time: 10:42:05
(UTC-08:00)

Tiros 1 despin weight - All Passes

Search period start: 05 March 2015 00:00
Search period end: 15 March 2015 01:00
Orbit: 599 x 648 km, 48.2° (Epoch: 04 March)

Date Brightness Start Highest point End Pass type
(mag) Time Alt. Az. Time Alt. Az. Time Alt. Az.
05 Mar - 03:29:50 10° SSW 03:33:58 40° SE 03:38:10 10° ENE visible
05 Mar - 05:11:37 10° W 05:15:42 34° NNW 05:19:48 10° NE visible
05 Mar - 06:55:52 10° NW 06:58:25 15° N 07:00:57 10° NNE daylight
05 Mar - 08:38:45 10° NNW 08:41:32 16° NNE 08:44:22 10° NE daylight
05 Mar - 10:19:48 10° NW 10:24:09 42° NNE 10:28:34 10° ESE daylight
05 Mar - 12:01:38 10° WNW 12:05:47 33° SW 12:09:56 10° SSE daylight
06 Mar - 02:09:26 10° SSE 02:11:03 12° SE 02:12:53 10° ESE night (unlit)
06 Mar - 03:47:50 10° SW 03:52:16 89° SSE 03:56:45 10° NE visible
06 Mar - 05:30:55 10° WNW 05:34:25 22° NNW 05:37:55 10° NNE visible
06 Mar - 07:15:12 10° NNW 07:17:24 13° N 07:19:38 10° NNE daylight
06 Mar - 08:56:57 10° NNW 09:00:25 21° NNE 09:03:57 10° ENE daylight
06 Mar - 10:38:03 10° NW 10:42:38 81° NE 10:47:17 10° SE daylight
06 Mar - 12:21:14 10° W 12:23:58 15° SW 12:26:31 10° SSW daylight
07 Mar - 02:25:27 10° SSW 02:29:12 28° SE 02:33:00 10° ENE visible
07 Mar - 04:06:28 10° WSW 04:10:44 45° NNW 04:15:02 10° NE visible
07 Mar - 05:50:28 10° NW 05:53:17 16° NNW 05:56:04 10° NNE visible
07 Mar - 07:33:56 10° NNW 07:36:23 14° N 07:38:54 10° NE daylight
07 Mar - 09:15:03 10° NW 09:19:09 32° NNE 09:23:19 10° E daylight
07 Mar - 10:56:34 10° WNW 11:00:58 47° SW 11:05:25 10° SSE daylight
08 Mar - 03:43:03 10° SW 03:47:25 62° SE 03:51:49 10° ENE visible
08 Mar - 05:25:34 10° W 05:29:22 27° NNW 05:33:09 10° NNE visible
08 Mar - 07:09:58 10° NW 07:12:14 14° N 07:14:29 10° NNE daylight
08 Mar - 08:52:12 10° NNW 08:55:19 18° NNE 08:58:29 10° ENE daylight
08 Mar - 10:33:14 10° NW 10:37:43 59° NE 10:42:16 10° ESE daylight
08 Mar - 12:15:37 10° W 12:19:10 22° SW 12:22:40 10° S daylight
09 Mar - 02:21:20 10° S 02:24:25 19° SE 02:27:37 10° E night (unlit)
09 Mar - 04:01:24 10° WSW 04:05:47 62° NW 04:10:12 10° NE visible
09 Mar - 05:45:02 10° WNW 05:48:09 18° NNW 05:51:15 10° NNE visible
09 Mar - 07:28:59 10° NNW 07:31:13 13° N 07:33:29 10° NE daylight
09 Mar - 09:10:19 10° NNW 09:14:06 26° NNE 09:17:58 10° E daylight
09 Mar - 10:51:35 10° WNW 10:56:06 69° SW 11:00:40 10° SE daylight
10 Mar - 02:38:25 10° SSW 02:42:35 42° SE 02:46:48 10° ENE night (unlit)
10 Mar - 04:20:17 10° W 04:24:20 33° NNW 04:28:23 10° NE visible
10 Mar - 06:04:36 10° NW 06:07:04 14° N 06:09:30 10° NNE visible
10 Mar - 07:47:25 10° NNW 07:50:09 16° NNE 07:52:58 10° NE daylight
10 Mar - 09:28:26 10° NW 09:32:44 43° NNE 09:37:07 10° ESE daylight
10 Mar - 11:10:18 10° WNW 11:14:21 31° SW 11:18:23 10° SSE daylight
11 Mar - 01:17:46 10° SSE 01:19:38 13° SE 01:21:42 10° ESE night (unlit)
11 Mar - 02:56:26 10° SW 03:00:52 87° NW 03:05:20 10° NE night (unlit)
11 Mar - 04:39:35 10° WNW 04:43:02 21° NNW 04:46:27 10° NNE visible
11 Mar - 06:23:53 10° NNW 06:26:01 13° N 06:28:10 10° NNE visible
11 Mar - 08:05:34 10° NNW 08:09:01 21° NNE 08:12:32 10° ENE daylight
11 Mar - 09:46:40 10° NW 09:51:12 84° NE 09:55:47 10° SE daylight
11 Mar - 11:30:01 10° W 11:32:30 14° SW 11:34:48 10° SSW daylight
12 Mar - 01:33:57 10° SSW 01:37:46 29° SE 01:41:38 10° ENE night (unlit)
12 Mar - 03:15:04 10° WSW 03:19:19 44° NNW 03:23:34 10° NE visible
12 Mar - 04:59:08 10° NW 05:01:53 16° NNW 05:04:36 10° NNE visible
12 Mar - 06:42:34 10° NNW 06:44:58 14° N 06:47:27 10° NE visible
12 Mar - 08:23:39 10° NW 08:27:43 33° NNE 08:31:51 10° E daylight
12 Mar - 10:05:10 10° WNW 10:09:30 45° SW 10:13:51 10° SSE daylight
13 Mar - 01:51:35 10° SW 01:55:59 65° SE 02:00:23 10° ENE night (unlit)
13 Mar - 03:34:11 10° W 03:37:56 26° NNW 03:41:40 10° NNE visible
13 Mar - 05:18:37 10° NNW 05:20:49 13° N 05:23:00 10° NNE visible
13 Mar - 07:00:47 10° NNW 07:03:52 18° NNE 07:07:01 10° ENE daylight
13 Mar - 08:41:48 10° NW 08:46:15 61° NE 08:50:45 10° ESE daylight
13 Mar - 10:24:15 10° W 10:27:40 21° SW 10:31:00 10° S daylight
14 Mar - 00:29:44 10° S 00:32:56 20° SE 00:36:14 10° E night (unlit)
14 Mar - 02:09:57 10° WSW 02:14:20 60° NW 02:18:43 10° NE night (unlit)
14 Mar - 03:53:39 10° WNW 03:56:42 18° NNW 03:59:44 10° NNE visible
14 Mar - 05:37:35 10° NNW 05:39:46 13° N 05:41:59 10° NE visible
14 Mar - 07:18:52 10° NNW 07:22:38 26° NNE 07:26:29 10° E daylight
14 Mar - 09:00:08 10° WNW 09:04:36 66° SW 09:09:06 10° SE daylight
15 Mar - 00:46:52 10° SSW 00:51:06 44° SE 00:55:20 10° ENE night (unlit)
